Time,TemperatureF,DewpointF,PressureIn,WindDirection,WindDirectionDegrees,WindSpeedMPH,WindSpeedGustMPH,Humidity,HourlyPrecipIn,Conditions,Clouds,dailyrainin,SoftwareType,DateUTC
2013-02-20 00:02:00,26.4,12.7,29.46,NE,45,2.4,6.9,56,0.00,,,0.00,WUHU216HW,2013-02-20 07:02:00,
2013-02-20 00:08:00,25.3,12.5,29.46,NE,45,3.8,6.4,58,0.00,,,0.00,WUHU216HW,2013-02-20 07:08:00,
2013-02-20 00:13:00,24.6,12.7,29.46,NE,45,4.0,6.4,60,0.00,,,0.00,WUHU216HW,2013-02-20 07:13:00,
2013-02-20 00:18:00,24.0,12.8,29.46,NE,45,4.6,6.2,62,0.00,,,0.00,WUHU216HW,2013-02-20 07:18:00,
2013-02-20 00:23:00,23.9,13.0,29.46,NE,45,6.0,6.0,63,0.00,,,0.00,WUHU216HW,2013-02-20 07:23:00,
2013-02-20 00:28:00,23.5,13.4,29.46,NE,45,6.2,6.9,65,0.00,,,0.00,WUHU216HW,2013-02-20 07:28:00,
2013-02-20 00:33:00,23.0,13.2,29.46,NE,45,6.0,6.9,66,0.00,,,0.00,WUHU216HW,2013-02-20 07:33:00,
2013-02-20 00:38:00,22.8,13.1,29.45,NE,45,4.2,6.9,66,0.00,,,0.00,WUHU216HW,2013-02-20 07:38:00,
2013-02-20 00:43:00,22.8,13.4,29.45,NE,45,7.1,7.1,67,0.00,,,0.00,WUHU216HW,2013-02-20 07:43:00,
2013-02-20 00:49:00,22.6,13.6,29.45,NE,45,6.4,7.1,68,0.00,,,0.00,WUHU216HW,2013-02-20 07:49:00,
2013-02-20 00:54:00,22.4,13.8,29.45,NE,45,7.3,8.9,69,0.00,,,0.00,WUHU216HW,2013-02-20 07:54:00,
2013-02-20 00:59:00,22.4,13.8,29.45,NE,45,6.7,8.9,69,0.00,,,0.00,WUHU216HW,2013-02-20 07:59:00,
2013-02-20 01:05:00,22.2,14.0,29.45,NNE,23,4.6,7.3,70,0.00,,,0.00,WUHU216HW,2013-02-20 08:05:00,
2013-02-20 01:10:00,22.1,13.8,29.46,NNE,23,6.7,8.0,70,0.00,,,0.00,WUHU216HW,2013-02-20 08:10:00,
2013-02-20 01:15:00,22.1,14.1,29.45,NNE,23,6.2,8.5,71,0.00,,,0.00,WUHU216HW,2013-02-20 08:15:00,
2013-02-20 01:20:00,22.1,14.1,29.45,NNE,23,6.9,8.5,71,0.00,,,0.00,WUHU216HW,2013-02-20 08:20:00,
2013-02-20 01:25:00,22.1,14.1,29.46,NNE,23,7.6,8.0,71,0.00,,,0.00,WUHU216HW,2013-02-20 08:25:00,
2013-02-20 01:30:00,21.9,13.6,29.45,NNE,23,4.6,8.0,70,0.00,,,0.00,WUHU216HW,2013-02-20 08:30:00,
2013-02-20 01:35:00,21.9,13.6,29.45,NNE,23,3.1,7.6,70,0.00,,,0.00,WUHU216HW,2013-02-20 08:35:00,
2013-02-20 01:40:00,21.7,13.4,29.45,NNE,23,0.0,4.6,70,0.00,,,0.00,WUHU216HW,2013-02-20 08:40:00,
2013-02-20 01:45:00,21.3,13.1,29.45,NNE,23,4.6,4.6,70,0.00,,,0.00,WUHU216HW,2013-02-20 08:45:00,
2013-02-20 01:50:00,21.0,12.7,29.45,NNE,23,2.0,4.6,70,0.00,,,0.00,WUHU216HW,2013-02-20 08:50:00,
2013-02-20 01:55:00,21.0,13.0,29.45,NNE,23,6.0,6.0,71,0.00,,,0.00,WUHU216HW,2013-02-20 08:55:00,
2013-02-20 02:00:00,21.0,13.0,29.45,NNE,23,4.4,6.0,71,0.00,,,0.00,WUHU216HW,2013-02-20 09:00:00,
2013-02-20 02:05:00,21.0,13.3,29.45,NNE,23,4.4,6.0,72,0.00,,,0.00,WUHU216HW,2013-02-20 09:05:00,
2013-02-20 02:11:00,21.0,13.3,29.45,NNE,23,3.8,5.8,72,0.00,,,0.00,WUHU216HW,2013-02-20 09:11:00,
2013-02-20 02:16:00,21.0,13.3,29.45,NNE,23,5.8,5.8,72,0.00,,,0.00,WUHU216HW,2013-02-20 09:16:00,
2013-02-20 02:21:00,21.0,13.3,29.45,NNE,23,4.0,5.8,72,0.00,,,0.00,WUHU216HW,2013-02-20 09:21:00,
2013-02-20 02:26:00,20.8,13.4,29.45,NNE,23,4.9,6.7,73,0.00,,,0.00,WUHU216HW,2013-02-20 09:26:00,
2013-02-20 02:31:00,20.8,13.4,29.45,NNE,23,2.0,6.7,73,0.00,,,0.00,WUHU216HW,2013-02-20 09:31:00,
2013-02-20 02:36:00,20.8,13.4,29.44,NNE,23,0.0,5.5,73,0.00,,,0.00,WUHU216HW,2013-02-20 09:36:00,
2013-02-20 02:41:00,20.4,13.1,29.44,NNE,23,0.0,2.0,73,0.00,,,0.00,WUHU216HW,2013-02-20 09:41:00,
2013-02-20 02:46:00,20.4,13.1,29.44,NNE,23,0.0,5.1,73,0.00,,,0.00,WUHU216HW,2013-02-20 09:46:00,
2013-02-20 02:52:00,20.3,12.9,29.44,NNE,23,2.4,5.1,73,0.00,,,0.00,WUHU216HW,2013-02-20 09:52:00,
2013-02-20 02:57:00,20.1,12.7,29.44,NNE,23,5.3,5.3,73,0.00,,,0.00,WUHU216HW,2013-02-20 09:57:00,
2013-02-20 03:02:00,19.5,12.5,29.44,NNE,23,4.0,5.3,74,0.00,,,0.00,WUHU216HW,2013-02-20 10:02:00,
2013-02-20 03:07:00,19.5,12.5,29.44,NNE,23,0.0,4.0,74,0.00,,,0.00,WUHU216HW,2013-02-20 10:07:00,
2013-02-20 03:12:00,19.2,12.1,29.44,NNE,23,3.5,5.5,74,0.00,,,0.00,WUHU216HW,2013-02-20 10:12:00,
2013-02-20 03:17:00,19.2,12.4,29.44,NNE,23,3.3,5.5,75,0.00,,,0.00,WUHU216HW,2013-02-20 10:17:00,
2013-02-20 03:22:00,19.2,12.4,29.44,NNE,23,0.0,4.4,75,0.00,,,0.00,WUHU216HW,2013-02-20 10:22:00,
2013-02-20 03:27:00,19.2,12.4,29.44,NNE,23,5.5,5.5,75,0.00,,,0.00,WUHU216HW,2013-02-20 10:27:00,
2013-02-20 03:32:00,19.2,12.7,29.44,NNE,23,5.1,6.4,76,0.00,,,0.00,WUHU216HW,2013-02-20 10:32:00,
2013-02-20 03:37:00,19.2,12.7,29.43,NNE,23,4.6,6.4,76,0.00,,,0.00,WUHU216HW,2013-02-20 10:37:00,
2013-02-20 03:42:00,19.2,12.7,29.43,NNE,23,3.1,6.2,76,0.00,,,0.00,WUHU216HW,2013-02-20 10:42:00,
2013-02-20 03:47:00,18.8,12.4,29.43,NNE,23,2.9,6.2,76,0.00,,,0.00,WUHU216HW,2013-02-20 10:47:00,
2013-02-20 03:52:00,18.6,12.2,29.43,NNE,23,1.7,4.6,76,0.00,,,0.00,WUHU216HW,2013-02-20 10:52:00,
2013-02-20 03:57:00,18.5,12.0,29.43,NNE,23,2.0,2.9,76,0.00,,,0.00,WUHU216HW,2013-02-20 10:57:00,
2013-02-20 04:02:00,18.3,11.9,29.43,NNE,23,1.7,2.0,76,0.00,,,0.00,WUHU216HW,2013-02-20 11:02:00,
2013-02-20 04:07:00,18.1,11.7,29.43,NNE,23,4.0,4.0,76,0.00,,,0.00,WUHU216HW,2013-02-20 11:07:00,
2013-02-20 04:12:00,18.1,11.7,29.43,NNE,23,5.5,5.5,76,0.00,,,0.00,WUHU216HW,2013-02-20 11:12:00,
2013-02-20 04:17:00,18.3,12.2,29.43,NNE,23,4.0,5.5,77,0.00,,,0.00,WUHU216HW,2013-02-20 11:17:00,
2013-02-20 04:23:00,18.1,12.0,29.43,NNE,23,4.9,5.5,77,0.00,,,0.00,WUHU216HW,2013-02-20 11:23:00,
2013-02-20 04:28:00,17.9,11.8,29.43,NNE,23,5.5,7.1,77,0.00,,,0.00,WUHU216HW,2013-02-20 11:28:00,
2013-02-20 04:33:00,17.9,11.8,29.43,NNE,23,4.6,7.1,77,0.00,,,0.00,WUHU216HW,2013-02-20 11:33:00,
2013-02-20 04:38:00,17.9,12.1,29.43,NNE,23,3.5,5.5,78,0.00,,,0.00,WUHU216HW,2013-02-20 11:38:00,
2013-02-20 04:43:00,17.7,11.6,29.43,NNE,23,4.9,4.9,77,0.00,,,0.00,WUHU216HW,2013-02-20 11:43:00,
2013-02-20 04:48:00,17.4,11.3,29.43,NNE,23,4.4,4.9,77,0.00,,,0.00,WUHU216HW,2013-02-20 11:48:00,
2013-02-20 04:53:00,17.2,11.6,29.43,NNE,23,0.0,4.9,78,0.00,,,0.00,WUHU216HW,2013-02-20 11:53:00,
2013-02-20 04:58:00,17.0,11.3,29.43,NNE,23,1.7,4.0,78,0.00,,,0.00,WUHU216HW,2013-02-20 11:58:00,
2013-02-20 05:03:00,16.8,11.1,29.43,NNE,23,4.4,4.4,78,0.00,,,0.00,WUHU216HW,2013-02-20 12:03:00,
2013-02-20 05:08:00,16.8,11.1,29.43,NNE,23,1.7,5.3,78,0.00,,,0.00,WUHU216HW,2013-02-20 12:08:00,
2013-02-20 05:13:00,16.8,11.4,29.43,NNE,23,6.7,6.7,79,0.00,,,0.00,WUHU216HW,2013-02-20 12:13:00,
2013-02-20 05:18:00,16.8,11.4,29.43,NNE,23,5.3,7.1,79,0.00,,,0.00,WUHU216HW,2013-02-20 12:18:00,
2013-02-20 05:23:00,16.8,11.7,29.43,NNE,23,5.1,7.1,80,0.00,,,0.00,WUHU216HW,2013-02-20 12:23:00,
2013-02-20 05:29:00,16.8,11.7,29.43,NNE,23,5.3,5.8,80,0.00,,,0.00,WUHU216HW,2013-02-20 12:29:00,
2013-02-20 05:34:00,16.8,11.7,29.43,NNE,23,5.5,6.9,80,0.00,,,0.00,WUHU216HW,2013-02-20 12:34:00,
2013-02-20 05:39:00,16.8,11.7,29.43,NNE,23,5.1,6.9,80,0.00,,,0.00,WUHU216HW,2013-02-20 12:39:00,
2013-02-20 05:44:00,16.7,11.5,29.43,NNE,23,4.4,5.5,80,0.00,,,0.00,WUHU216HW,2013-02-20 12:44:00,
2013-02-20 05:49:00,16.5,11.4,29.43,NNE,23,2.9,6.7,80,0.00,,,0.00,WUHU216HW,2013-02-20 12:49:00,
2013-02-20 05:54:00,16.3,11.2,29.43,NNE,23,4.6,6.7,80,0.00,,,0.00,WUHU216HW,2013-02-20 12:54:00,
2013-02-20 05:59:00,16.3,11.2,29.43,NNE,23,4.6,4.9,80,0.00,,,0.00,WUHU216HW,2013-02-20 12:59:00,
2013-02-20 06:04:00,16.3,11.2,29.43,NNE,23,2.4,7.1,80,0.00,,,0.00,WUHU216HW,2013-02-20 13:04:00,
2013-02-20 06:09:00,16.3,11.2,29.43,NNE,23,5.8,7.1,80,0.00,,,0.00,WUHU216HW,2013-02-20 13:09:00,
2013-02-20 06:14:00,16.3,11.4,29.44,NNE,23,5.8,6.9,81,0.00,,,0.00,WUHU216HW,2013-02-20 13:14:00,
2013-02-20 06:19:00,16.1,11.3,29.43,NNE,23,6.4,6.9,81,0.00,,,0.00,WUHU216HW,2013-02-20 13:19:00,
2013-02-20 06:24:00,16.1,11.3,29.43,NNE,23,5.8,8.2,81,0.00,,,0.00,WUHU216HW,2013-02-20 13:24:00,
2013-02-20 06:29:00,16.1,11.3,29.44,NNE,23,4.9,8.2,81,0.00,,,0.00,WUHU216HW,2013-02-20 13:29:00,
2013-02-20 06:35:00,15.9,11.1,29.44,NNE,23,5.8,5.8,81,0.00,,,0.00,WUHU216HW,2013-02-20 13:35:00,
2013-02-20 06:40:00,15.8,11.0,29.44,NNE,23,6.4,6.4,81,0.00,,,0.00,WUHU216HW,2013-02-20 13:40:00,
2013-02-20 06:45:00,15.8,11.0,29.44,NNE,23,6.2,7.8,81,0.00,,,0.00,WUHU216HW,2013-02-20 13:45:00,
2013-02-20 06:50:00,15.8,11.0,29.44,NNE,23,5.1,7.8,81,0.00,,,0.00,WUHU216HW,2013-02-20 13:50:00,
2013-02-20 06:55:00,15.6,10.8,29.44,NNE,23,5.3,8.0,81,0.00,,,0.00,WUHU216HW,2013-02-20 13:55:00,
2013-02-20 07:00:00,15.6,10.8,29.44,NNE,23,4.4,8.0,81,0.00,,,0.00,WUHU216HW,2013-02-20 14:00:00,
2013-02-20 07:05:00,15.6,10.8,29.44,NNE,23,4.4,5.5,81,0.00,,,0.00,WUHU216HW,2013-02-20 14:05:00,
2013-02-20 07:10:00,15.4,10.6,29.44,NNE,23,5.3,5.3,81,0.00,,,0.00,WUHU216HW,2013-02-20 14:10:00,
2013-02-20 07:15:00,15.4,10.6,29.44,NNE,23,6.2,6.2,81,0.00,,,0.00,WUHU216HW,2013-02-20 14:15:00,
2013-02-20 07:20:00,15.6,11.0,29.44,NNE,23,6.2,6.2,82,0.00,,,0.00,WUHU216HW,2013-02-20 14:20:00,
2013-02-20 07:25:00,15.4,10.9,29.44,NNE,23,4.9,6.2,82,0.00,,,0.00,WUHU216HW,2013-02-20 14:25:00,
2013-02-20 07:30:00,15.6,11.0,29.44,NNE,23,4.0,6.2,82,0.00,,,0.00,WUHU216HW,2013-02-20 14:30:00,
2013-02-20 07:36:00,15.6,11.0,29.44,NNE,23,4.2,6.0,82,0.00,,,0.00,WUHU216HW,2013-02-20 14:36:00,
2013-02-20 07:41:00,15.8,11.2,29.44,NNE,23,5.3,5.3,82,0.00,,,0.00,WUHU216HW,2013-02-20 14:41:00,
2013-02-20 07:46:00,15.9,11.6,29.44,NNE,23,6.2,6.2,83,0.00,,,0.00,WUHU216HW,2013-02-20 14:46:00,
2013-02-20 07:51:00,16.5,12.1,29.45,NNE,23,2.9,6.2,83,0.00,,,0.00,WUHU216HW,2013-02-20 14:51:00,
2013-02-20 07:56:00,16.8,12.5,29.45,NNE,23,5.8,6.2,83,0.00,,,0.00,WUHU216HW,2013-02-20 14:56:00,
2013-02-20 08:01:00,17.2,12.5,29.45,NNE,23,4.6,6.7,82,0.00,,,0.00,WUHU216HW,2013-02-20 15:01:00,
2013-02-20 08:06:00,17.4,12.7,29.44,NNE,23,7.3,9.6,82,0.00,,,0.00,WUHU216HW,2013-02-20 15:06:00,
2013-02-20 08:11:00,17.7,13.1,29.45,NNE,23,6.4,9.6,82,0.00,,,0.00,WUHU216HW,2013-02-20 15:11:00,
2013-02-20 08:17:00,18.3,13.3,29.45,NNE,23,7.1,7.8,81,0.00,,,0.00,WUHU216HW,2013-02-20 15:17:00,
2013-02-20 08:22:00,18.6,13.4,29.45,NNE,23,7.3,7.3,80,0.00,,,0.00,WUHU216HW,2013-02-20 15:22:00,
2013-02-20 08:27:00,18.6,13.4,29.45,NNE,23,6.4,7.3,80,0.00,,,0.00,WUHU216HW,2013-02-20 15:27:00,
2013-02-20 08:32:00,19.0,13.5,29.46,NNE,23,8.7,10.9,79,0.00,,,0.00,WUHU216HW,2013-02-20 15:32:00,
2013-02-20 08:37:00,19.2,13.6,29.46,NNE,23,9.1,10.9,79,0.00,,,0.00,WUHU216HW,2013-02-20 15:37:00,
2013-02-20 08:42:00,19.5,14.0,29.46,NNE,23,6.2,9.1,79,0.00,,,0.00,WUHU216HW,2013-02-20 15:42:00,
2013-02-20 08:47:00,19.9,14.1,29.46,NNE,23,6.4,7.8,78,0.00,,,0.00,WUHU216HW,2013-02-20 15:47:00,
2013-02-20 08:52:00,20.8,14.6,29.46,NNE,23,10.5,10.5,78,0.00,,,0.00,WUHU216HW,2013-02-20 15:52:00,
2013-02-20 08:57:00,21.0,14.8,29.45,NNE,23,11.4,11.8,77,0.00,,,0.00,WUHU216HW,2013-02-20 15:57:00,
2013-02-20 09:02:00,21.3,14.9,29.45,NNE,23,6.9,11.8,76,0.00,,,0.00,WUHU216HW,2013-02-20 16:02:00,
2013-02-20 09:08:00,22.1,15.3,29.45,NE,45,9.6,11.4,75,0.00,,,0.00,WUHU216HW,2013-02-20 16:08:00,
2013-02-20 09:13:00,22.8,16.0,29.46,SSE,158,9.3,9.6,75,0.00,,,0.00,WUHU216HW,2013-02-20 16:13:00,
2013-02-20 09:18:00,22.8,15.7,29.45,NE,45,6.9,9.6,74,0.00,,,0.00,WUHU216HW,2013-02-20 16:18:00,
2013-02-20 09:23:00,23.0,15.8,29.45,NE,45,4.9,9.3,73,0.00,,,0.00,WUHU216HW,2013-02-20 16:23:00,
2013-02-20 09:28:00,23.7,16.3,29.46,SSE,158,5.3,6.2,73,0.00,,,0.00,WUHU216HW,2013-02-20 16:28:00,
2013-02-20 09:33:00,24.4,16.6,29.45,SSE,158,10.2,10.2,72,0.00,,,0.00,WUHU216HW,2013-02-20 16:33:00,
2013-02-20 09:38:00,24.9,16.8,29.45,SSE,158,4.9,10.2,71,0.00,,,0.00,WUHU216HW,2013-02-20 16:38:00,
2013-02-20 09:43:00,25.5,17.0,29.46,NNE,23,0.0,8.2,70,0.00,,,0.00,WUHU216HW,2013-02-20 16:43:00,
2013-02-20 09:48:00,26.2,17.4,29.45,NE,45,7.1,7.1,69,0.00,,,0.00,WUHU216HW,2013-02-20 16:48:00,
2013-02-20 09:53:00,26.7,17.2,29.46,SSE,158,4.2,7.1,67,0.00,,,0.00,WUHU216HW,2013-02-20 16:53:00,
2013-02-20 09:58:00,27.1,17.6,29.45,NE,45,0.0,4.6,67,0.00,,,0.00,WUHU216HW,2013-02-20 16:58:00,
2013-02-20 10:03:00,27.3,17.0,29.45,SSE,158,2.4,6.9,65,0.00,,,0.00,WUHU216HW,2013-02-20 17:03:00,
2013-02-20 10:08:00,27.6,17.4,29.45,SSE,158,1.5,6.9,65,0.00,,,0.00,WUHU216HW,2013-02-20 17:08:00,
2013-02-20 10:13:00,27.8,17.2,29.45,South,180,2.9,8.0,64,0.00,,,0.00,WUHU216HW,2013-02-20 17:13:00,
2013-02-20 10:18:00,28.4,17.7,29.45,SSE,158,0.0,8.0,64,0.00,,,0.00,WUHU216HW,2013-02-20 17:18:00,
2013-02-20 10:24:00,28.9,17.9,29.45,NNE,23,7.8,7.8,63,0.00,,,0.00,WUHU216HW,2013-02-20 17:24:00,
2013-02-20 10:29:00,29.3,17.8,29.44,South,180,0.0,7.8,62,0.00,,,0.00,WUHU216HW,2013-02-20 17:29:00,
2013-02-20 10:34:00,30.0,18.1,29.45,SSE,158,0.0,6.2,61,0.00,,,0.00,WUHU216HW,2013-02-20 17:34:00,
2013-02-20 10:39:00,30.0,17.7,29.45,SSE,158,7.3,7.3,60,0.00,,,0.00,WUHU216HW,2013-02-20 17:39:00,
2013-02-20 10:44:00,30.2,17.5,29.45,SSE,158,6.7,7.3,59,0.00,,,0.00,WUHU216HW,2013-02-20 17:44:00,
2013-02-20 10:49:00,30.3,17.2,29.45,SSE,158,8.0,8.0,58,0.00,,,0.00,WUHU216HW,2013-02-20 17:49:00,
2013-02-20 10:54:00,30.2,17.1,29.45,NNE,23,8.2,8.7,58,0.00,,,0.00,WUHU216HW,2013-02-20 17:54:00,
2013-02-20 10:59:00,30.0,16.9,29.45,SSE,158,8.0,8.7,58,0.00,,,0.00,WUHU216HW,2013-02-20 17:59:00,
2013-02-20 11:04:00,30.0,16.9,29.45,SSE,158,10.2,10.2,58,0.00,,,0.00,WUHU216HW,2013-02-20 18:04:00,
2013-02-20 11:09:00,30.3,17.2,29.44,SSE,158,0.4,10.2,58,0.00,,,0.00,WUHU216HW,2013-02-20 18:09:00,
2013-02-20 11:14:00,30.7,17.6,29.44,South,180,6.2,10.2,58,0.00,,,0.00,WUHU216HW,2013-02-20 18:14:00,
2013-02-20 11:19:00,31.6,18.1,29.44,SSE,158,0.0,9.3,57,0.00,,,0.00,WUHU216HW,2013-02-20 18:19:00,
2013-02-20 11:24:00,32.5,18.5,29.44,SSE,158,0.0,9.3,56,0.00,,,0.00,WUHU216HW,2013-02-20 18:24:00,
2013-02-20 11:29:00,33.8,19.2,29.44,SSE,158,0.0,7.1,55,0.00,,,0.00,WUHU216HW,2013-02-20 18:29:00,
2013-02-20 11:34:00,34.3,19.3,29.44,SSE,158,0.0,4.0,54,0.00,,,0.00,WUHU216HW,2013-02-20 18:34:00,
2013-02-20 11:39:00,35.4,19.3,29.44,SSE,158,0.0,0.0,52,0.00,,,0.00,WUHU216HW,2013-02-20 18:39:00,
2013-02-20 11:45:00,36.1,20.2,29.44,SSE,158,0.0,0.0,52,0.00,,,0.00,WUHU216HW,2013-02-20 18:45:00,
2013-02-20 11:50:00,37.0,20.5,29.44,SSE,158,0.0,0.0,51,0.00,,,0.00,WUHU216HW,2013-02-20 18:50:00,
2013-02-20 11:55:00,37.7,20.2,29.44,SSE,158,0.0,0.0,49,0.00,,,0.00,WUHU216HW,2013-02-20 18:55:00,
2013-02-20 12:00:00,37.7,19.7,29.43,SSE,158,0.0,0.8,48,0.00,,,0.00,WUHU216HW,2013-02-20 19:00:00,
2013-02-20 12:05:00,37.7,19.7,29.43,SSE,158,0.0,0.8,48,0.00,,,0.00,WUHU216HW,2013-02-20 19:05:00,
2013-02-20 12:10:00,38.3,19.7,29.42,SSE,158,0.0,0.0,47,0.00,,,0.00,WUHU216HW,2013-02-20 19:10:00,
2013-02-20 12:15:00,38.4,19.8,29.42,SSE,158,3.5,3.5,47,0.00,,,0.00,WUHU216HW,2013-02-20 19:15:00,
2013-02-20 12:20:00,39.0,19.8,29.42,SSE,158,0.0,3.5,46,0.00,,,0.00,WUHU216HW,2013-02-20 19:20:00,
2013-02-20 12:25:00,39.0,19.8,29.42,SSE,158,0.0,0.0,46,0.00,,,0.00,WUHU216HW,2013-02-20 19:25:00,
2013-02-20 12:30:00,39.0,19.3,29.42,SSE,158,0.0,0.0,45,0.00,,,0.00,WUHU216HW,2013-02-20 19:30:00,
2013-02-20 12:36:00,39.3,19.6,29.41,SSE,158,0.0,0.0,45,0.00,,,0.00,WUHU216HW,2013-02-20 19:36:00,
2013-02-20 12:41:00,39.7,19.9,29.41,SSE,158,0.0,0.0,45,0.00,,,0.00,WUHU216HW,2013-02-20 19:41:00,
2013-02-20 12:46:00,39.9,19.6,29.41,SSE,158,0.0,1.3,44,0.00,,,0.00,WUHU216HW,2013-02-20 19:46:00,
2013-02-20 12:51:00,40.6,20.2,29.41,SSE,158,0.0,1.3,44,0.00,,,0.00,WUHU216HW,2013-02-20 19:51:00,
2013-02-20 12:56:00,41.3,20.3,29.41,SSE,158,1.5,1.5,43,0.00,,,0.00,WUHU216HW,2013-02-20 19:56:00,
2013-02-20 13:01:00,41.5,20.0,29.41,SSE,158,6.7,6.7,42,0.00,,,0.00,WUHU216HW,2013-02-20 20:01:00,
2013-02-20 13:06:00,41.0,19.5,29.40,SSE,158,7.3,7.3,42,0.00,,,0.00,WUHU216HW,2013-02-20 20:06:00,
2013-02-20 13:11:00,40.6,19.2,29.40,South,180,0.6,7.3,42,0.00,,,0.00,WUHU216HW,2013-02-20 20:11:00,
2013-02-20 13:16:00,40.6,18.6,29.40,South,180,8.5,9.3,41,0.00,,,0.00,WUHU216HW,2013-02-20 20:16:00,
2013-02-20 13:21:00,39.9,18.0,29.41,NNE,23,0.0,9.3,41,0.00,,,0.00,WUHU216HW,2013-02-20 20:21:00,
2013-02-20 13:26:00,39.7,18.4,29.41,South,180,12.0,12.0,42,0.00,,,0.00,WUHU216HW,2013-02-20 20:26:00,
2013-02-20 13:31:00,39.3,18.0,29.41,SSE,158,2.6,12.0,42,0.00,,,0.00,WUHU216HW,2013-02-20 20:31:00,
2013-02-20 13:36:00,38.8,18.1,29.40,SSE,158,6.9,12.0,43,0.00,,,0.00,WUHU216HW,2013-02-20 20:36:00,
2013-02-20 13:41:00,38.4,17.7,29.40,South,180,12.7,12.7,43,0.00,,,0.00,WUHU216HW,2013-02-20 20:41:00,
2013-02-20 13:47:00,38.1,17.9,29.40,SSE,158,10.2,12.7,44,0.00,,,0.00,WUHU216HW,2013-02-20 20:47:00,
2013-02-20 13:52:00,37.9,17.8,29.40,South,180,7.1,12.7,44,0.00,,,0.00,WUHU216HW,2013-02-20 20:52:00,
2013-02-20 13:57:00,37.7,18.1,29.40,South,180,7.1,13.4,45,0.00,,,0.00,WUHU216HW,2013-02-20 20:57:00,
2013-02-20 14:02:00,37.5,18.0,29.40,South,180,9.3,13.4,45,0.00,,,0.00,WUHU216HW,2013-02-20 21:02:00,
2013-02-20 14:07:00,37.9,18.3,29.40,South,180,6.0,13.1,45,0.00,,,0.00,WUHU216HW,2013-02-20 21:07:00,
2013-02-20 14:12:00,37.7,18.1,29.40,South,180,9.3,10.9,45,0.00,,,0.00,WUHU216HW,2013-02-20 21:12:00,
2013-02-20 14:17:00,37.5,18.0,29.40,South,180,11.4,14.0,45,0.00,,,0.00,WUHU216HW,2013-02-20 21:17:00,
2013-02-20 14:22:00,37.2,17.7,29.39,South,180,9.8,14.0,45,0.00,,,0.00,WUHU216HW,2013-02-20 21:22:00,
2013-02-20 14:27:00,37.2,17.7,29.40,SSE,158,11.1,11.4,45,0.00,,,0.00,WUHU216HW,2013-02-20 21:27:00,
2013-02-20 14:32:00,37.2,17.7,29.40,SSE,158,13.4,13.4,45,0.00,,,0.00,WUHU216HW,2013-02-20 21:32:00,
2013-02-20 14:37:00,37.4,17.8,29.40,South,180,10.9,13.4,45,0.00,,,0.00,WUHU216HW,2013-02-20 21:37:00,
2013-02-20 14:42:00,37.5,18.0,29.40,South,180,8.0,11.4,45,0.00,,,0.00,WUHU216HW,2013-02-20 21:42:00,
2013-02-20 14:47:00,37.5,18.0,29.40,South,180,8.9,10.9,45,0.00,,,0.00,WUHU216HW,2013-02-20 21:47:00,
2013-02-20 14:52:00,37.4,17.3,29.40,South,180,8.5,14.9,44,0.00,,,0.00,WUHU216HW,2013-02-20 21:52:00,
2013-02-20 14:58:00,37.4,17.3,29.40,South,180,12.5,14.9,44,0.00,,,0.00,WUHU216HW,2013-02-20 21:58:00,
2013-02-20 15:03:00,37.2,17.7,29.40,South,180,8.9,13.6,45,0.00,,,0.00,WUHU216HW,2013-02-20 22:03:00,
2013-02-20 15:08:00,37.2,17.7,29.40,South,180,8.9,13.4,45,0.00,,,0.00,WUHU216HW,2013-02-20 22:08:00,
2013-02-20 15:13:00,37.2,17.1,29.40,South,180,7.8,13.4,44,0.00,,,0.00,WUHU216HW,2013-02-20 22:13:00,
2013-02-20 15:18:00,37.4,17.3,29.40,NNE,23,8.5,8.9,44,0.00,,,0.00,WUHU216HW,2013-02-20 22:18:00,
2013-02-20 15:23:00,37.5,17.5,29.40,NNE,23,7.8,12.0,44,0.00,,,0.00,WUHU216HW,2013-02-20 22:23:00,
2013-02-20 15:28:00,37.2,17.1,29.40,NNE,23,9.3,12.0,44,0.00,,,0.00,WUHU216HW,2013-02-20 22:28:00,
2013-02-20 15:33:00,36.8,17.3,29.41,SSE,158,7.8,11.6,45,0.00,,,0.00,WUHU216HW,2013-02-20 22:33:00,
2013-02-20 15:38:00,36.6,17.2,29.40,South,180,11.1,16.3,45,0.00,,,0.00,WUHU216HW,2013-02-20 22:38:00,
2013-02-20 15:43:00,36.3,17.4,29.40,South,180,12.5,16.3,46,0.00,,,0.00,WUHU216HW,2013-02-20 22:43:00,
2013-02-20 15:48:00,36.1,17.2,29.41,NNE,23,10.2,12.5,46,0.00,,,0.00,WUHU216HW,2013-02-20 22:48:00,
2013-02-20 15:54:00,35.7,17.4,29.40,NNE,23,11.4,12.5,47,0.00,,,0.00,WUHU216HW,2013-02-20 22:54:00,
2013-02-20 15:59:00,34.8,17.4,29.40,SSE,158,10.2,11.6,48,0.00,,,0.00,WUHU216HW,2013-02-20 22:59:00,
2013-02-20 16:04:00,34.5,16.7,29.40,NNE,23,12.9,14.7,48,0.00,,,0.00,WUHU216HW,2013-02-20 23:04:00,
2013-02-20 16:09:00,34.3,17.0,29.40,South,180,15.6,15.6,49,0.00,,,0.00,WUHU216HW,2013-02-20 23:09:00,
2013-02-20 16:14:00,33.9,17.2,29.41,South,180,13.1,15.6,50,0.00,,,0.00,WUHU216HW,2013-02-20 23:14:00,
2013-02-20 16:19:00,33.6,17.3,29.41,South,180,12.5,14.5,51,0.00,,,0.00,WUHU216HW,2013-02-20 23:19:00,
2013-02-20 16:24:00,33.4,17.1,29.41,NNE,23,17.6,17.6,51,0.00,,,0.00,WUHU216HW,2013-02-20 23:24:00,
2013-02-20 16:29:00,33.2,17.4,29.41,South,180,10.5,17.6,52,0.00,,,0.00,WUHU216HW,2013-02-20 23:29:00,
2013-02-20 16:34:00,32.9,17.1,29.41,South,180,15.4,17.6,52,0.00,,,0.00,WUHU216HW,2013-02-20 23:34:00,
2013-02-20 16:39:00,32.9,16.6,29.41,NNE,23,7.6,15.4,51,0.00,,,0.00,WUHU216HW,2013-02-20 23:39:00,
2013-02-20 16:44:00,32.7,16.5,29.41,NNE,23,11.4,11.4,51,0.00,,,0.00,WUHU216HW,2013-02-20 23:44:00,
2013-02-20 16:49:00,32.7,16.5,29.41,NNE,23,7.3,12.5,51,0.00,,,0.00,WUHU216HW,2013-02-20 23:49:00,
2013-02-20 16:54:00,32.5,16.7,29.41,South,180,6.0,12.5,52,0.00,,,0.00,WUHU216HW,2013-02-20 23:54:00,
2013-02-20 16:59:00,32.1,16.0,29.41,NNE,23,7.8,11.4,51,0.00,,,0.00,WUHU216HW,2013-02-20 23:59:00,
2013-02-20 17:04:00,31.8,15.6,29.41,NNE,23,6.9,11.4,51,0.00,,,0.00,WUHU216HW,2013-02-21 00:04:00,
2013-02-20 17:10:00,31.4,15.8,29.41,NNE,23,7.3,10.5,52,0.00,,,0.00,WUHU216HW,2013-02-21 00:10:00,
2013-02-20 17:15:00,31.1,15.8,29.42,NNE,23,8.7,10.5,53,0.00,,,0.00,WUHU216HW,2013-02-21 00:15:00,
2013-02-20 17:20:00,30.9,16.1,29.42,NE,45,9.3,9.3,54,0.00,,,0.00,WUHU216HW,2013-02-21 00:20:00,
2013-02-20 17:25:00,30.5,15.8,29.42,NNE,23,5.3,9.3,54,0.00,,,0.00,WUHU216HW,2013-02-21 00:25:00,
2013-02-20 17:30:00,30.3,15.6,29.42,NE,45,9.1,9.1,54,0.00,,,0.00,WUHU216HW,2013-02-21 00:30:00,
2013-02-20 17:35:00,30.0,15.7,29.42,NE,45,5.8,9.1,55,0.00,,,0.00,WUHU216HW,2013-02-21 00:35:00,
2013-02-20 17:40:00,29.4,15.6,29.42,NE,45,5.5,6.7,56,0.00,,,0.00,WUHU216HW,2013-02-21 00:40:00,
2013-02-20 17:45:00,29.1,15.7,29.43,NE,45,7.1,7.1,57,0.00,,,0.00,WUHU216HW,2013-02-21 00:45:00,
2013-02-20 17:50:00,28.7,15.8,29.43,NE,45,11.4,11.4,58,0.00,,,0.00,WUHU216HW,2013-02-21 00:50:00,
2013-02-20 17:55:00,28.2,15.7,29.43,NE,45,6.7,11.4,59,0.00,,,0.00,WUHU216HW,2013-02-21 00:55:00,
2013-02-20 18:00:00,27.6,15.2,29.43,NE,45,6.7,7.6,59,0.00,,,0.00,WUHU216HW,2013-02-21 01:00:00,
2013-02-20 18:05:00,27.6,15.2,29.43,NE,45,6.2,7.6,59,0.00,,,0.00,WUHU216HW,2013-02-21 01:05:00,
2013-02-20 18:10:00,27.3,15.2,29.44,NE,45,8.0,8.0,60,0.00,,,0.00,WUHU216HW,2013-02-21 01:10:00,
2013-02-20 18:16:00,27.1,15.4,29.44,NE,45,5.1,8.0,61,0.00,,,0.00,WUHU216HW,2013-02-21 01:16:00,
2013-02-20 18:21:00,26.9,15.2,29.44,NE,45,6.4,7.8,61,0.00,,,0.00,WUHU216HW,2013-02-21 01:21:00,
2013-02-20 18:26:00,26.7,15.0,29.44,NE,45,6.7,6.7,61,0.00,,,0.00,WUHU216HW,2013-02-21 01:26:00,
2013-02-20 18:31:00,26.4,15.0,29.44,NE,45,7.6,7.6,62,0.00,,,0.00,WUHU216HW,2013-02-21 01:31:00,
2013-02-20 18:36:00,26.4,15.4,29.44,NE,45,4.0,7.6,63,0.00,,,0.00,WUHU216HW,2013-02-21 01:36:00,
2013-02-20 18:41:00,26.2,15.2,29.44,NE,45,4.2,7.6,63,0.00,,,0.00,WUHU216HW,2013-02-21 01:41:00,
2013-02-20 18:46:00,25.7,14.7,29.44,NE,45,8.2,8.2,63,0.00,,,0.00,WUHU216HW,2013-02-21 01:46:00,
2013-02-20 18:51:00,25.5,14.9,29.45,NE,45,8.9,8.9,64,0.00,,,0.00,WUHU216HW,2013-02-21 01:51:00,
2013-02-20 18:56:00,25.5,14.9,29.45,NE,45,2.6,8.9,64,0.00,,,0.00,WUHU216HW,2013-02-21 01:56:00,
2013-02-20 19:01:00,25.1,14.6,29.44,NE,45,6.2,7.3,64,0.00,,,0.00,WUHU216HW,2013-02-21 02:01:00,
2013-02-20 19:06:00,24.8,14.6,29.45,NE,45,7.6,7.6,65,0.00,,,0.00,WUHU216HW,2013-02-21 02:06:00,
2013-02-20 19:11:00,24.4,14.2,29.45,NE,45,8.0,8.0,65,0.00,,,0.00,WUHU216HW,2013-02-21 02:11:00,
2013-02-20 19:16:00,24.0,14.2,29.45,NE,45,4.4,8.0,66,0.00,,,0.00,WUHU216HW,2013-02-21 02:16:00,
2013-02-20 19:21:00,23.9,14.1,29.45,NE,45,5.3,8.0,66,0.00,,,0.00,WUHU216HW,2013-02-21 02:21:00,
2013-02-20 19:27:00,23.5,14.1,29.45,NNE,23,6.7,6.7,67,0.00,,,0.00,WUHU216HW,2013-02-21 02:27:00,
2013-02-20 19:32:00,23.3,14.6,29.45,NNE,23,6.2,12.0,69,0.00,,,0.00,WUHU216HW,2013-02-21 02:32:00,
2013-02-20 19:37:00,23.1,15.4,29.45,NNE,23,9.3,12.0,72,0.00,,,0.00,WUHU216HW,2013-02-21 02:37:00,
2013-02-20 19:42:00,22.8,15.7,29.45,NNE,23,6.4,11.6,74,0.00,,,0.00,WUHU216HW,2013-02-21 02:42:00,
2013-02-20 19:47:00,22.6,16.1,29.45,NNE,23,9.8,11.6,76,0.00,,,0.00,WUHU216HW,2013-02-21 02:47:00,
2013-02-20 19:52:00,22.2,16.4,29.45,NNE,23,9.6,10.5,78,0.00,,,0.00,WUHU216HW,2013-02-21 02:52:00,
2013-02-20 19:57:00,22.1,16.5,29.45,NE,45,3.3,10.0,79,0.00,,,0.00,WUHU216HW,2013-02-21 02:57:00,
2013-02-20 20:02:00,22.1,16.8,29.45,NNE,23,10.5,10.5,80,0.00,,,0.00,WUHU216HW,2013-02-21 03:02:00,
2013-02-20 20:07:00,22.2,17.0,29.45,NNE,23,5.8,10.5,80,0.00,,,0.00,WUHU216HW,2013-02-21 03:07:00,
2013-02-20 20:13:00,22.4,17.5,29.46,NNE,23,11.1,12.0,81,0.00,,,0.00,WUHU216HW,2013-02-21 03:13:00,
2013-02-20 20:18:00,22.4,17.5,29.46,NNE,23,6.9,13.1,81,0.00,,,0.00,WUHU216HW,2013-02-21 03:18:00,
2013-02-20 20:23:00,22.6,17.6,29.46,NNE,23,6.4,13.1,81,0.00,,,0.00,WUHU216HW,2013-02-21 03:23:00,
2013-02-20 20:28:00,22.6,17.6,29.46,NNE,23,11.8,11.8,81,0.00,,,0.00,WUHU216HW,2013-02-21 03:28:00,
2013-02-20 20:33:00,22.6,17.9,29.46,NNE,23,7.1,11.8,82,0.00,,,0.00,WUHU216HW,2013-02-21 03:33:00,
2013-02-20 20:38:00,22.6,17.9,29.46,NNE,23,7.1,11.6,82,0.00,,,0.00,WUHU216HW,2013-02-21 03:38:00,
2013-02-20 20:43:00,22.6,17.9,29.46,NNE,23,11.6,12.5,82,0.00,,,0.00,WUHU216HW,2013-02-21 03:43:00,
2013-02-20 20:48:00,22.6,17.9,29.47,NNE,23,10.2,12.5,82,0.00,,,0.00,WUHU216HW,2013-02-21 03:48:00,
2013-02-20 20:53:00,22.6,17.9,29.47,NNE,23,6.9,13.1,82,0.00,,,0.00,WUHU216HW,2013-02-21 03:53:00,
2013-02-20 20:58:00,22.8,18.1,29.47,NE,45,6.4,13.1,82,0.00,,,0.00,WUHU216HW,2013-02-21 03:58:00,
2013-02-20 21:03:00,22.8,18.1,29.47,NNE,23,8.0,10.5,82,0.00,,,0.00,WUHU216HW,2013-02-21 04:03:00,
2013-02-20 21:08:00,22.8,18.1,29.47,NNE,23,10.0,12.9,82,0.00,,,0.00,WUHU216HW,2013-02-21 04:08:00,
2013-02-20 21:13:00,22.8,18.1,29.47,NNE,23,6.9,12.9,82,0.00,,,0.00,WUHU216HW,2013-02-21 04:13:00,
2013-02-20 21:19:00,22.8,18.1,29.47,NNE,23,14.7,14.7,82,0.00,,,0.00,WUHU216HW,2013-02-21 04:19:00,
2013-02-20 21:24:00,22.8,18.1,29.47,NNE,23,8.7,14.7,82,0.00,,,0.00,WUHU216HW,2013-02-21 04:24:00,
2013-02-20 21:29:00,22.8,18.1,29.47,NNE,23,4.9,14.7,82,0.00,,,0.00,WUHU216HW,2013-02-21 04:29:00,
2013-02-20 21:34:00,22.8,18.1,29.47,NNE,23,14.9,15.4,82,0.00,,,0.00,WUHU216HW,2013-02-21 04:34:00,
2013-02-20 21:39:00,22.8,18.1,29.47,NNE,23,11.4,15.4,82,0.00,,,0.00,WUHU216HW,2013-02-21 04:39:00,
2013-02-20 21:44:00,22.8,18.1,29.47,NE,45,6.9,14.9,82,0.00,,,0.00,WUHU216HW,2013-02-21 04:44:00,
2013-02-20 21:49:00,22.8,18.1,29.47,NNE,23,6.4,7.1,82,0.00,,,0.00,WUHU216HW,2013-02-21 04:49:00,
2013-02-20 21:54:00,22.8,18.4,29.47,NE,45,10.5,10.5,83,0.00,,,0.00,WUHU216HW,2013-02-21 04:54:00,
2013-02-20 21:59:00,22.8,18.1,29.47,NNE,23,8.2,10.5,82,0.00,,,0.00,WUHU216HW,2013-02-21 04:59:00,
2013-02-20 22:00:00,22.8,18.1,29.47,NNE,23,8.2,10.5,82,0.00,,,0.00,WUHU216HW,2013-02-21 05:00:00,
2013-02-20 22:01:00,22.8,18.1,29.47,NNE,23,8.7,10.5,82,0.00,,,0.00,WUHU216HW,2013-02-21 05:01:00,
2013-02-20 22:06:00,22.8,18.1,29.47,NE,45,9.8,9.8,82,0.00,,,0.00,WUHU216HW,2013-02-21 05:06:00,
2013-02-20 22:11:00,22.8,18.1,29.48,NNE,23,7.6,9.8,82,0.00,,,0.00,WUHU216HW,2013-02-21 05:11:00,
2013-02-20 22:16:00,22.8,18.1,29.48,NE,45,6.4,11.6,82,0.00,,,0.00,WUHU216HW,2013-02-21 05:16:00,
2013-02-20 22:21:00,22.8,18.1,29.47,NNE,23,4.9,11.6,82,0.00,,,0.00,WUHU216HW,2013-02-21 05:21:00,
2013-02-20 22:26:00,22.8,18.1,29.48,NE,45,7.1,7.8,82,0.00,,,0.00,WUHU216HW,2013-02-21 05:26:00,
2013-02-20 22:31:00,22.8,18.1,29.48,NNE,23,10.0,10.0,82,0.00,,,0.00,WUHU216HW,2013-02-21 05:31:00,
2013-02-20 22:36:00,22.6,17.9,29.48,NNE,23,13.1,13.1,82,0.00,,,0.00,WUHU216HW,2013-02-21 05:36:00,
2013-02-20 22:41:00,22.6,17.9,29.49,NNE,23,6.9,13.1,82,0.00,,,0.00,WUHU216HW,2013-02-21 05:41:00,
2013-02-20 22:47:00,22.6,18.2,29.48,NNE,23,8.2,8.2,83,0.00,,,0.00,WUHU216HW,2013-02-21 05:47:00,
2013-02-20 22:52:00,22.4,18.0,29.48,NE,45,7.8,8.2,83,0.00,,,0.00,WUHU216HW,2013-02-21 05:52:00,
2013-02-20 22:57:00,22.4,18.0,29.48,NNE,23,6.4,8.9,83,0.00,,,0.00,WUHU216HW,2013-02-21 05:57:00,
2013-02-20 23:02:00,22.2,17.8,29.48,NNE,23,9.1,12.7,83,0.00,,,0.00,WUHU216HW,2013-02-21 06:02:00,
2013-02-20 23:07:00,22.2,17.8,29.48,NE,45,6.4,12.7,83,0.00,,,0.00,WUHU216HW,2013-02-21 06:07:00,
2013-02-20 23:12:00,22.2,17.8,29.49,NNE,23,7.6,12.0,83,0.00,,,0.00,WUHU216HW,2013-02-21 06:12:00,
2013-02-20 23:18:00,22.2,17.8,29.49,NNE,23,6.2,8.2,83,0.00,,,0.00,WUHU216HW,2013-02-21 06:18:00,
2013-02-20 23:23:00,22.2,17.8,29.49,NNE,23,8.0,10.5,83,0.00,,,0.00,WUHU216HW,2013-02-21 06:23:00,
2013-02-20 23:28:00,22.1,17.6,29.49,NNE,23,12.7,12.7,83,0.00,,,0.00,WUHU216HW,2013-02-21 06:28:00,
2013-02-20 23:33:00,22.1,17.6,29.49,NNE,23,5.1,12.7,83,0.00,,,0.00,WUHU216HW,2013-02-21 06:33:00,
2013-02-20 23:38:00,22.1,17.6,29.48,NNE,23,7.1,10.2,83,0.00,,,0.00,WUHU216HW,2013-02-21 06:38:00,
2013-02-20 23:43:00,22.1,17.6,29.49,NNE,23,7.1,11.8,83,0.00,,,0.00,WUHU216HW,2013-02-21 06:43:00,
2013-02-20 23:48:00,22.2,17.8,29.49,NNE,23,12.3,12.3,83,0.00,,,0.00,WUHU216HW,2013-02-21 06:48:00,
2013-02-20 23:53:00,22.1,17.6,29.49,NNE,23,5.5,12.3,83,0.00,,,0.00,WUHU216HW,2013-02-21 06:53:00,
2013-02-20 23:58:00,22.1,17.6,29.49,NNE,23,6.7,12.3,83,0.00,,,0.00,WUHU216HW,2013-02-21 06:58:00,